Station WPOW1 - West Point, WA Image indicating link to RSS feed of recent meteorological observations for station WPOW1


Conditions at WPOW1 as of
(12:00 pm PDT)
1900 GMT on 06/12/2024:
     

Click on the graph icon in the table below to see a time series plot of the last five days of that observation.

5-day plot - Wind Direction Wind Direction (WDIR): N ( 10 deg true )
5-day plot - Wind Speed Wind Speed (WSPD): 8 kts
5-day plot - Wind Gust Wind Gust (GST): 8 kts
5-day plot - Atmospheric Pressure Atmospheric Pressure (PRES):30.26 in
5-day plot - Pressure Tendency Pressure Tendency (PTDY):+0.00 in ( Steady )
5-day plot - Air Temperature Air Temperature (ATMP): 56.1 °F
5-day plot - Dew Point Dew Point (DEWP): 45.1 °F
5-day plot - Wind Speed at 10 Meters Wind Speed at 10 meters (WSPD10M): 8 kts
5-day plot - Wind Speed at 20 Meters Wind Speed at 20 meters (WSPD20M): 8 kts
5-day plot -  Wind Speed, Wind Gust and Atmospheric Pressure Combined plot of Wind Speed, Gust, and Air Pressure
Continuous Winds
TIME
(PDT)
5-day plot - Wind Direction WDIR 5-day plot - Wind Speed WSPD
12:00 pmN ( 11 deg ) 8 kts
11:50 amN ( 8 deg ) 9 kts
11:40 amN ( 2 deg ) 9 kts
11:30 amN ( 1 deg ) 9 kts
11:20 amN ( 1 deg ) 10 kts
11:10 amN ( 1 deg ) 9 kts
 
Peak gust during the measurement hour
TIME
(PDT)
5-day plot - Gust Direction GDR 5-day plot - Gust Speed GST
11:06 amN ( 360 deg ) 11 kts
Previous observations
TIME
(PDT)
5-day plot - Wind Direction
WDIR
 
5-day plot - Wind Speed
WSPD
kts
5-day plot - Wind Gust
GST
kts
5-day plot - Wave Height
WVHT
ft
5-day plot - Dominant Wave Period
DPD
sec
5-day plot - Average Wave Period
APD
sec
5-day plot - Mean Wave Direction
MWD
 
5-day plot - Atmospheric Pressure
PRES
in
5-day plot - Pressure Tendency
PTDY
in
5-day plot - Air Temperature
ATMP
°F
5-day plot - Water Temperature
WTMP
°F
5-day plot - Dew Point
DEWP
°F
5-day plot - Salinity
SAL
psu
5-day plot - Visibility
VIS
nmi
5-day plot - Tide (above MLLW)
TIDE
ft
2024-06-12 11:00 am N 8 9----30.27+0.02 55.4- 44.8---
2024-06-12 10:00 amNNE 5 6----30.26+0.03 54.5- 46.4---
2024-06-12 09:00 am N 7 8----30.26+0.04 53.4- 45.0---
2024-06-12 08:00 amNNE 7 8----30.25+0.04 52.3- 43.9---
2024-06-12 07:00 am N 8 9----30.23+0.04 52.5- 44.1---
2024-06-12 06:00 amNNE 8 10----30.22+0.02 52.5- 44.1---
2024-06-12 05:00 am NE 8 9----30.20+0.00 52.5- 45.1---
2024-06-12 04:00 am NE 12 14----30.20+0.00 52.5- 46.6---
2024-06-12 03:00 amENE 5 6----30.20+0.00 51.8- 45.5---
2024-06-12 02:00 am NE 5 6----30.20+0.00 52.0- 46.0---
2024-06-12 01:00 amENE 7 10----30.20+0.01 52.9- 45.3---
2024-06-12 12:00 amENE 5 6----30.20+0.03 53.8- 45.5---
2024-06-11 11:00 pmENE 6 7----30.20+0.04 54.7- 46.0---
2024-06-11 10:00 pm NE 13 14----30.19+0.04 54.3- 46.4---
2024-06-11 09:00 pmNNE 15 16----30.17+0.05 54.0- 46.9---
2024-06-11 08:00 pmNNE 19 21----30.16+0.04 53.6- 48.0---
2024-06-11 07:00 pmNNE 19 20----30.15+0.04 54.5- 48.2---
2024-06-11 06:00 pm N 20 25----30.12+0.05 55.2- 48.6---
2024-06-11 05:00 pm N 18 22----30.12+0.05 54.7- 50.4---
2024-06-11 04:00 pmWSW 4 7----30.10+0.07 59.4- 49.6---
2024-06-11 03:00 pm S 15 18----30.08+0.06 60.8- 49.1---
2024-06-11 02:00 pm S 21 22----30.07+0.06 60.1- 49.1---
2024-06-11 01:00 pmSSW 26 29----30.03- 60.1- 49.8---
2024-06-11 12:00 pm S 25 28----30.02+0.01 58.8- 54.5---